This is the latest recevied weather packets stored in our database for station/object KC9DRE. If no packets are shown the sender has not sent any weather packets the latest 1 day(s).
| Time | Temp. | Humidity | Pressure | Rain* | Wind** | Luminosity | Snow |
|---|---|---|---|---|---|---|---|
| 1778098757 | 16.67° C | 46% | 1014.3 hPa | 0 mm | - | 554 W/m² | - |
| 1778097847 | 16.67° C | 49% | 1014.1 hPa | 0 mm | - | 455 W/m² | - |
| 1778096332 | 16.67° C | 47% | 1014.2 hPa | 0 mm | - | 703 W/m² | - |
| 1778094815 | 16.67° C | 53% | 1014.2 hPa | 0 mm | - | 845 W/m² | - |
| 1778092694 | 16.11° C | 45% | 1014.2 hPa | 0 mm | - | 586 W/m² | - |
| 1778091481 | 15.56° C | 52% | 1014 hPa | 0 mm | - | 674 W/m² | - |
| 1778091179 | 15.56° C | 45% | 1014.1 hPa | 0 mm | - | 524 W/m² | - |
| 1778090268 | 16.11° C | 50% | 1014.1 hPa | 0 mm | - | 922 W/m² | - |
| 1778088147 | 15° C | 48% | 1014.4 hPa | 0 mm | - | 791 W/m² | - |
| 1778087845 | 14.44° C | 54% | 1014.2 hPa | 0 mm | - | 871 W/m² | - |
| 1778087542 | 14.44° C | 53% | 1014.6 hPa | 0 mm | - | 783 W/m² | - |
| 1778086936 | 13.89° C | 56% | 1014.6 hPa | 0 mm | - | 453 W/m² | - |
| 1778086331 | 13.89° C | 50% | 1014.8 hPa | 0 mm | - | 584 W/m² | - |
| 1778084813 | 14.44° C | 57% | 1014.8 hPa | 0 mm | - | 414 W/m² | - |
| 1778083602 | 14.44° C | 50% | 1014.7 hPa | 0 mm | - | 796 W/m² | - |
| 1778083299 | 14.44° C | 54% | 1014.7 hPa | 0 mm | - | 648 W/m² | - |
| 1778081556 | 13.33° C | 59% | 1014.3 hPa | 0 mm | - | 704 W/m² | - |
| 1778080042 | 12.78° C | 59% | 1013.9 hPa | 0 mm | - | 605 W/m² | - |
| 1778078527 | 12.22° C | 64% | 1013.8 hPa | 0 mm | - | 459 W/m² | - |
| 1778077318 | 12.22° C | 66% | 1013.7 hPa | 0 mm | - | 336 W/m² | - |
| 1778076714 | 12.78° C | 64% | 1013.8 hPa | 0 mm | - | 486 W/m² | - |
| 1778075805 | 12.78° C | 62% | 1013.3 hPa | 0 mm | - | 386 W/m² | - |
| 1778075198 | 11.67° C | 74% | 1013.3 hPa | 0 mm | - | 478 W/m² | - |
| 1778074288 | 11.67° C | 70% | 1013.2 hPa | 0 mm | - | 427 W/m² | - |
| 1778073380 | 11.11° C | 74% | 1012.8 hPa | 0 mm | - | 351 W/m² | - |
* Rain latest hour (hover to see other rain measurements)
** Current wind speed in m/s (hover to see current wind gust speed)